Location: Votelez
(50.0000°N, 15.0000°E)
Time: 10:10:23
(UTC+01:00)

ISS - Pass Details

Date: 15 February 2026
Orbit: 416 x 426 km, 51.6° (Epoch: 9 March)

Event Time Altitude Azimuth Distance (km) Brightness Sun altitude
Exits shadow 05:35:26 11° 203° (SSW) 1,424 -1.3 -15.9°
Maximum altitude 05:38:07 27° 146° (SE) 837 -1.9 -15.4°
Drops below altitude 10° 05:41:01 10° 86° (E) 1,493 0.4 -15.0°
Sets 05:43:17 0° 74° (ENE) 2,358 1.5 -14.6°
